QPF
0.00 0.00 0.00 0.00 0.00 0.00 0.00 0.00 0.00 0.00 0.00 0.00 0.00 0.00 0.00 0.00 0.00 0.00 0.00 0.00 0.00 0.00 0.00 0.00 0.00 0.00 0.00 0.00 0.00 0.00 0.00 0.00 0.00 0.00 0.00 0.00 0.00 0.00 0.00 0.00 0.01 0.02 0.03 0.02
0.00 0.00 0.00 0.00 0.00 0.00 0.00 0.00 0.00 0.00 0.00 0.00 0.00 0.00 0.00 0.00 0.00 0.00 0.00 0.00 0.00 0.00 0.00 0.00 0.00 0.00 0.00 0.00 0.00 0.00 0.00 0.00 0.00 0.00 0.00 0.00 0.00 0.00 0.00 0.00 0.01 0.02 0.01 0.01
0.00 0.00 0.00 0.00 0.00 0.00 0.00 0.00 0.00 0.00 0.00 0.00 0.00 0.00 0.00 0.00 0.00 0.00 0.00 0.00 0.00 0.00 0.00 0.00 0.00 0.00 0.00 0.00 0.00 0.00 0.00 0.00 0.00 0.00 0.00 0.00 0.00 0.00 0.00 0.00 0.00 0.00 0.00 0.01
0.00 0.00 0.00 0.00 0.00 0.00 0.00 0.00 0.00 0.00 0.00 0.00 0.00 0.00 0.00 0.00 0.00 0.00 0.00 0.00 0.00 0.00 0.00 0.00 0.00 0.00 0.00 0.00 0.00 0.00 0.00 0.00 0.00 0.00 0.00 0.00 0.00 0.00 0.00 0.00 0.00 0.00 0.00 0.00
0.00 0.00 0.00 0.00 0.00 0.00 0.00 0.00 0.00 0.00 0.00 0.00 0.00 0.00 0.00 0.00 0.00 0.00 0.00 0.00 0.00 0.00 0.00 0.00 0.00 0.00 0.00 0.00 0.00 0.00 0.00 0.00 0.00 0.00 0.00 0.00 0.00 0.00 0.00 0.00 0.00 0.00 0.00 0.00
0.00 0.00 0.00 0.00 0.00 0.00 0.00 0.00 0.00 0.00 0.00 0.00 0.00 0.00 0.00 0.00 0.00 0.00 0.00 0.00 0.00 0.00 0.00 0.00 0.00 0.00 0.00 0.00 0.00 0.00 0.00 0.00 0.00 0.00 0.00 0.00 0.00 0.00 0.00 0.00 0.00 0.00 0.00 0.00
0.00 0.00 0.00 0.00 0.00 0.00 0.00 0.00 0.00 0.00 0.00 0.00 0.00 0.00 0.00 0.00 0.00 0.00 0.00 0.00 0.00 0.00 0.00 0.00 0.00 0.00 0.00 0.00 0.00 0.00 0.00 0.00 0.00 0.00 0.00 0.00 0.00 0.00 0.00 0.00 0.00 0.00 0.00 0.00
0.00 0.00 0.00 0.00 0.00 0.00 0.00 0.00 0.00 0.00 0.00 0.00 0.00 0.00 0.00 0.00 0.00 0.00 0.00 0.00 0.00 0.00 0.00 0.00 0.00 0.00 0.00 0.00 0.00 0.00 0.00 0.00 0.00 0.00 0.00 0.00 0.00 0.00 0.00 0.00 0.00 0.00 0.00 0.00
0.00 0.00 0.00 0.00 0.00 0.00 0.00 0.00 0.00 0.00 0.00 0.00 0.00 0.00 0.00 0.00 0.00 0.00 0.00 0.00 0.00 0.00 0.00 0.00 0.00 0.00 0.00 0.00 0.00 0.00 0.00 0.00 0.00 0.00 0.00 0.00 0.00 0.00 0.00 0.00 0.00 0.00 0.00 0.00
0.00 0.00 0.00 0.00 0.00 0.00 0.00 0.00 0.00 0.00 0.00 0.00 0.00 0.00 0.00 0.00 0.00 0.00 0.00 0.00 0.00 0.00 0.00 0.00 0.00 0.00 0.00 0.00 0.00 0.00 0.00 0.00 0.00 0.00 0.00 0.00 0.00 0.00 0.00 0.00 0.00 0.00 0.00 0.00
0.00 0.00 0.00 0.00 0.00 0.00 0.00 0.00 0.00 0.00 0.00 0.00 0.00 0.00 0.00 0.00 0.00 0.00 0.00 0.00 0.00 0.00 0.00 0.00 0.00 0.00 0.00 0.00 0.00 0.00 0.00 0.00 0.00 0.00 0.00 0.00 0.00 0.00 0.00 0.00 0.00 0.00 0.00 0.00
0.00 0.00 0.00 0.00 0.00 0.00 0.00 0.00 0.00 0.00 0.00 0.00 0.00 0.00 0.00 0.00 0.00 0.00 0.00 0.00 0.00 0.00 0.00 0.00 0.00 0.00 0.00 0.00 0.00 0.00 0.00 0.00 0.00 0.00 0.00 0.00 0.00 0.00 0.00 0.00 0.00 0.00 0.00 0.00
0.00 0.00 0.00 0.00 0.00 0.00 0.00 0.00 0.00 0.00 0.00 0.00 0.00 0.00 0.00 0.00 0.00 0.00 0.00 0.00 0.00 0.00 0.00 0.00 0.00 0.00 0.00 0.00 0.00 0.00 0.00 0.00 0.00 0.00 0.00 0.00 0.00 0.00 0.00 0.00 0.00 0.00 0.00 0.00
0.00 0.00 0.00 0.00 0.00 0.00 0.00 0.00 0.00 0.00 0.00 0.00 0.00 0.00 0.00 0.00 0.00 0.00 0.00 0.00 0.00 0.00 0.00 0.00 0.00 0.00 0.00 0.00 0.00 0.00 0.00 0.00 0.00 0.00 0.00 0.00 0.00 0.00 0.00 0.00 0.00 0.00 0.00 0.00
0.00 0.00 0.00 0.00 0.00 0.00 0.00 0.00 0.00 0.00 0.00 0.00 0.00 0.00 0.00 0.00 0.00 0.00 0.00 0.00 0.00 0.00 0.00 0.00 0.00 0.00 0.00 0.00 0.00 0.00 0.00 0.00 0.00 0.00 0.00 0.00 0.00 0.00 0.00 0.00 0.00 0.00 0.00 0.00
0.00 0.00 0.00 0.00 0.00 0.00 0.00 0.00 0.00 0.00 0.00 0.00 0.00 0.00 0.00 0.00 0.00 0.00 0.00 0.00 0.00 0.00 0.00 0.00 0.00 0.00 0.00 0.00 0.00 0.00 0.00 0.00 0.00 0.00 0.00 0.00 0.00 0.00 0.00 0.00 0.00 0.00 0.00 0.00
0.00 0.00 0.00 0.00 0.00 0.00 0.00 0.00 0.00 0.00 0.00 0.00 0.00 0.00 0.00 0.00 0.00 0.00 0.00 0.00 0.00 0.00 0.00 0.00 0.00 0.00 0.00 0.00 0.00 0.00 0.00 0.00 0.00 0.00 0.00 0.00 0.00 0.00 0.00 0.00 0.00 0.00 0.00 0.00
0.00 0.00 0.00 0.00 0.00 0.00 0.00 0.00 0.00 0.00 0.00 0.00 0.00 0.00 0.00 0.00 0.00 0.00 0.00 0.00 0.00 0.00 0.00 0.00 0.00 0.00 0.00 0.00 0.00 0.00 0.00 0.00 0.00 0.00 0.00 0.00 0.00 0.00 0.00 0.00 0.00 0.00 0.00 0.00
0.00 0.00 0.00 0.00 0.00 0.00 0.00 0.00 0.00 0.00 0.00 0.00 0.00 0.00 0.00 0.00 0.00 0.00 0.00 0.00 0.00 0.00 0.00 0.00 0.00 0.00 0.00 0.00 0.00 0.00 0.00 0.00 0.00 0.00 0.00 0.00 0.00 0.00 0.00 0.00 0.00 0.00 0.00 0.00
0.00 0.00 0.00 0.00 0.00 0.00 0.00 0.00 0.00 0.00 0.00 0.00 0.00 0.00 0.00 0.00 0.00 0.00 0.00 0.00 0.00 0.00 0.00 0.00 0.00 0.00 0.00 0.00 0.00 0.00 0.00 0.00 0.00 0.00 0.00 0.00 0.00 0.00 0.00 0.00 0.00 0.00 0.00 0.00
0.00 0.00 0.00 0.00 0.00 0.00 0.00 0.00 0.00 0.00 0.00 0.00 0.00 0.00 0.00 0.00 0.00 0.00 0.00 0.00 0.00 0.00 0.00 0.00 0.00 0.00 0.00 0.00 0.00 0.00 0.00 0.00 0.00 0.00 0.00 0.00 0.00 0.00 0.00 0.00 0.00 0.00 0.00 0.00
0.00 0.00 0.00 0.00 0.00 0.00 0.00 0.00 0.00 0.00 0.00 0.00 0.00 0.00 0.00 0.00 0.00 0.00 0.00 0.00 0.00 0.00 0.00 0.00 0.00 0.00 0.00 0.00 0.00 0.00 0.00 0.00 0.00 0.00 0.00 0.00 0.00 0.00 0.00 0.00 0.00 0.00 0.00 0.00
0.00 0.00 0.00 0.00 0.00 0.00 0.00 0.00 0.00 0.00 0.00 0.00 0.00 0.00 0.00 0.00 0.00 0.00 0.00 0.00 0.00 0.00 0.00 0.00 0.00 0.00 0.00 0.00 0.00 0.00 0.00 0.00 0.00 0.00 0.00 0.00 0.00 0.00 0.00 0.00 0.00 0.00 0.00 0.00
0.00 0.00 0.00 0.00 0.00 0.00 0.00 0.00 0.00 0.00 0.00 0.00 0.00 0.00 0.00 0.00 0.00 0.00 0.00 0.00 0.00 0.00 0.00 0.00 0.00 0.00 0.00 0.00 0.00 0.00 0.00 0.00 0.00 0.00 0.00 0.00 0.00 0.00 0.00 0.00 0.00 0.00 0.00 0.00
0.00 0.00 0.00 0.00 0.00 0.00 0.00 0.00 0.00 0.00 0.00 0.00 0.00 0.00 0.00 0.00 0.00 0.00 0.00 0.00 0.00 0.00 0.00 0.00 0.00 0.00 0.00 0.00 0.00 0.00 0.00 0.00 0.00 0.00 0.00 0.00 0.00 0.00 0.00 0.00 0.01 0.01 0.01 0.01
0.00 0.00 0.00 0.00 0.00 0.00 0.00 0.00 0.00 0.00 0.00 0.00 0.00 0.00 0.00 0.00 0.00 0.00 0.00 0.00 0.00 0.00 0.00 0.00 0.00 0.00 0.00 0.00 0.00 0.00 0.00 0.00 0.00 0.00 0.00 0.00 0.00 0.01 0.01 0.01 0.01 0.01 0.02 0.02
0.00 0.00 0.00 0.00 0.00 0.00 0.00 0.00 0.00 0.00 0.00 0.00 0.00 0.00 0.00 0.00 0.00 0.00 0.00 0.00 0.00 0.00 0.00 0.00 0.00 0.00 0.00 0.00 0.00 0.00 0.00 0.00 0.00 0.00 0.00 0.01 0.01 0.01 0.02 0.02 0.02 0.03 0.03 0.03
MSLP
1018.10 1018.52 1018.91 1019.23 1019.45 1019.52 1019.44 1019.19 1018.79 1018.27 1017.67 1017.06 1016.48 1015.98 1015.60 1015.33 1015.18 1015.12 1015.12 1015.16 1015.19 1015.22 1015.23 1015.24 1015.25 1015.29 1015.36 1015.47 1015.60 1015.75 1015.89 1015.99 1016.03 1015.99 1015.87 1015.66 1015.39 1015.06 1014.69 1014.31 1013.91 1013.52 1013.12 1012.72
1017.95 1018.29 1018.57 1018.78 1018.88 1018.85 1018.69 1018.40 1017.99 1017.51 1016.98 1016.46 1015.97 1015.56 1015.24 1015.02 1014.88 1014.80 1014.78 1014.77 1014.77 1014.77 1014.77 1014.78 1014.81 1014.87 1014.98 1015.12 1015.29 1015.47 1015.64 1015.78 1015.85 1015.84 1015.75 1015.59 1015.35 1015.05 1014.72 1014.36 1013.98 1013.61 1013.23 1012.85
1017.77 1018.00 1018.16 1018.24 1018.22 1018.09 1017.85 1017.52 1017.12 1016.68 1016.23 1015.80 1015.42 1015.11 1014.86 1014.69 1014.57 1014.50 1014.45 1014.42 1014.39 1014.36 1014.35 1014.36 1014.40 1014.49 1014.63 1014.80 1015.00 1015.21 1015.40 1015.54 1015.63 1015.64 1015.57 1015.43 1015.21 1014.95 1014.64 1014.31 1013.97 1013.62 1013.27 1012.93
1017.55 1017.67 1017.71 1017.67 1017.53 1017.30 1017.00 1016.64 1016.26 1015.86 1015.49 1015.15 1014.87 1014.65 1014.48 1014.35 1014.26 1014.19 1014.13 1014.07 1014.02 1013.98 1013.96 1013.97 1014.03 1014.15 1014.31 1014.51 1014.73 1014.95 1015.15 1015.30 1015.39 1015.40 1015.33 1015.19 1014.99 1014.74 1014.46 1014.16 1013.86 1013.55 1013.24 1012.93
1017.29 1017.30 1017.24 1017.09 1016.86 1016.56 1016.22 1015.86 1015.49 1015.14 1014.83 1014.58 1014.37 1014.22 1014.11 1014.02 1013.95 1013.88 1013.81 1013.73 1013.66 1013.61 1013.59 1013.61 1013.69 1013.82 1014.00 1014.22 1014.46 1014.69 1014.88 1015.03 1015.11 1015.11 1015.03 1014.89 1014.70 1014.46 1014.20 1013.93 1013.66 1013.38 1013.12 1012.85
1016.95 1016.89 1016.75 1016.54 1016.26 1015.93 1015.58 1015.22 1014.89 1014.59 1014.33 1014.14 1013.99 1013.88 1013.80 1013.73 1013.66 1013.58 1013.50 1013.40 1013.32 1013.26 1013.24 1013.27 1013.36 1013.51 1013.71 1013.94 1014.18 1014.41 1014.60 1014.73 1014.79 1014.78 1014.70 1014.55 1014.36 1014.14 1013.89 1013.65 1013.40 1013.17 1012.94 1012.71
1016.52 1016.42 1016.25 1016.03 1015.75 1015.44 1015.12 1014.80 1014.51 1014.25 1014.04 1013.88 1013.76 1013.67 1013.59 1013.52 1013.44 1013.34 1013.24 1013.13 1013.03 1012.97 1012.94 1012.98 1013.07 1013.22 1013.42 1013.65 1013.89 1014.10 1014.28 1014.39 1014.44 1014.42 1014.32 1014.18 1013.99 1013.78 1013.56 1013.34 1013.13 1012.93 1012.74 1012.55
1015.95 1015.86 1015.73 1015.55 1015.34 1015.10 1014.85 1014.60 1014.37 1014.16 1013.99 1013.84 1013.73 1013.63 1013.54 1013.44 1013.33 1013.21 1013.08 1012.95 1012.84 1012.76 1012.73 1012.75 1012.84 1012.98 1013.16 1013.36 1013.57 1013.76 1013.91 1014.00 1014.03 1014.00 1013.90 1013.76 1013.59 1013.40 1013.21 1013.02 1012.85 1012.69 1012.54 1012.39
1015.26 1015.23 1015.18 1015.11 1015.01 1014.89 1014.75 1014.60 1014.44 1014.29 1014.15 1014.02 1013.90 1013.78 1013.66 1013.52 1013.38 1013.23 1013.08 1012.93 1012.80 1012.70 1012.65 1012.64 1012.69 1012.79 1012.93 1013.09 1013.25 1013.39 1013.49 1013.55 1013.56 1013.51 1013.42 1013.29 1013.14 1012.98 1012.83 1012.68 1012.55 1012.44 1012.34 1012.23
1014.48 1014.55 1014.63 1014.70 1014.76 1014.79 1014.79 1014.75 1014.69 1014.60 1014.49 1014.37 1014.24 1014.09 1013.94 1013.78 1013.61 1013.43 1013.25 1013.08 1012.93 1012.81 1012.72 1012.67 1012.67 1012.70 1012.76 1012.84 1012.92 1012.99 1013.03 1013.04 1013.01 1012.95 1012.85 1012.74 1012.61 1012.49 1012.38 1012.29 1012.21 1012.15 1012.09 1012.04
1013.67 1013.87 1014.11 1014.35 1014.58 1014.78 1014.92 1015.01 1015.04 1015.01 1014.94 1014.83 1014.69 1014.54 1014.36 1014.18 1013.99 1013.80 1013.61 1013.43 1013.26 1013.10 1012.97 1012.86 1012.78 1012.72 1012.67 1012.64 1012.62 1012.58 1012.54 1012.48 1012.40 1012.30 1012.20 1012.09 1011.98 1011.89 1011.83 1011.78 1011.75 1011.75 1011.75 1011.75
1012.93 1013.27 1013.66 1014.07 1014.47 1014.82 1015.10 1015.30 1015.42 1015.46 1015.43 1015.34 1015.20 1015.05 1014.87 1014.69 1014.50 1014.32 1014.13 1013.94 1013.75 1013.57 1013.39 1013.20 1013.03 1012.85 1012.69 1012.53 1012.37 1012.21 1012.06 1011.90 1011.75 1011.60 1011.47 1011.34 1011.24 1011.17 1011.13 1011.11 1011.13 1011.18 1011.24 1011.30
1012.32 1012.80 1013.33 1013.89 1014.42 1014.90 1015.29 1015.59 1015.78 1015.87 1015.87 1015.81 1015.70 1015.55 1015.40 1015.24 1015.07 1014.91 1014.74 1014.56 1014.37 1014.16 1013.92 1013.67 1013.39 1013.11 1012.81 1012.51 1012.21 1011.92 1011.64 1011.37 1011.13 1010.91 1010.71 1010.55 1010.42 1010.34 1010.30 1010.29 1010.33 1010.40 1010.50 1010.61
1011.91 1012.50 1013.14 1013.80 1014.44 1015.00 1015.47 1015.83 1016.07 1016.20 1016.24 1016.20 1016.12 1016.01 1015.89 1015.77 1015.65 1015.52 1015.39 1015.23 1015.04 1014.81 1014.53 1014.21 1013.85 1013.46 1013.04 1012.60 1012.17 1011.74 1011.34 1010.95 1010.60 1010.29 1010.01 1009.78 1009.60 1009.47 1009.39 1009.36 1009.38 1009.45 1009.55 1009.68
1011.70 1012.36 1013.08 1013.81 1014.50 1015.11 1015.62 1016.01 1016.28 1016.43 1016.50 1016.50 1016.46 1016.39 1016.32 1016.25 1016.18 1016.10 1016.01 1015.88 1015.70 1015.46 1015.16 1014.79 1014.36 1013.88 1013.36 1012.82 1012.27 1011.73 1011.21 1010.71 1010.25 1009.84 1009.46 1009.14 1008.87 1008.66 1008.50 1008.40 1008.36 1008.38 1008.46 1008.57
1011.65 1012.38 1013.14 1013.90 1014.61 1015.23 1015.74 1016.13 1016.41 1016.59 1016.68 1016.71 1016.71 1016.69 1016.67 1016.66 1016.64 1016.62 1016.56 1016.46 1016.30 1016.06 1015.74 1015.34 1014.87 1014.34 1013.76 1013.15 1012.52 1011.90 1011.29 1010.70 1010.15 1009.63 1009.15 1008.72 1008.34 1008.02 1007.75 1007.55 1007.41 1007.34 1007.34 1007.39
1011.71 1012.49 1013.27 1014.03 1014.73 1015.34 1015.83 1016.22 1016.49 1016.68 1016.79 1016.86 1016.90 1016.93 1016.96 1017.00 1017.03 1017.05 1017.02 1016.95 1016.80 1016.57 1016.25 1015.85 1015.36 1014.81 1014.20 1013.56 1012.90 1012.24 1011.58 1010.93 1010.31 1009.71 1009.14 1008.61 1008.11 1007.67 1007.27 1006.94 1006.67 1006.47 1006.35 1006.29
1011.84 1012.64 1013.43 1014.18 1014.86 1015.43 1015.91 1016.28 1016.55 1016.74 1016.88 1016.98 1017.06 1017.14 1017.22 1017.29 1017.36 1017.40 1017.40 1017.33 1017.19 1016.97 1016.66 1016.26 1015.79 1015.25 1014.66 1014.03 1013.38 1012.71 1012.05 1011.38 1010.72 1010.07 1009.44 1008.82 1008.22 1007.66 1007.14 1006.67 1006.26 1005.92 1005.65 1005.46
1011.98 1012.80 1013.59 1014.32 1014.97 1015.52 1015.97 1016.33 1016.60 1016.81 1016.97 1017.10 1017.23 1017.34 1017.45 1017.56 1017.64 1017.69 1017.68 1017.62 1017.47 1017.25 1016.95 1016.57 1016.12 1015.62 1015.07 1014.48 1013.88 1013.26 1012.62 1011.98 1011.32 1010.66 1009.99 1009.32 1008.65 1008.00 1007.38 1006.79 1006.25 1005.77 1005.36 1005.02
1012.13 1012.96 1013.74 1014.44 1015.06 1015.59 1016.02 1016.37 1016.65 1016.88 1017.07 1017.24 1017.40 1017.54 1017.68 1017.79 1017.87 1017.91 1017.89 1017.81 1017.65 1017.42 1017.12 1016.76 1016.34 1015.88 1015.39 1014.87 1014.33 1013.78 1013.20 1012.60 1011.99 1011.35 1010.68 1010.00 1009.31 1008.61 1007.92 1007.26 1006.62 1006.04 1005.50 1005.02
1012.28 1013.10 1013.86 1014.54 1015.13 1015.64 1016.06 1016.41 1016.70 1016.95 1017.17 1017.38 1017.56 1017.73 1017.87 1017.98 1018.05 1018.07 1018.02 1017.91 1017.73 1017.48 1017.18 1016.83 1016.44 1016.02 1015.59 1015.13 1014.66 1014.18 1013.68 1013.15 1012.59 1012.00 1011.38 1010.73 1010.05 1009.35 1008.66 1007.96 1007.29 1006.63 1006.01 1005.42
1012.46 1013.25 1013.98 1014.62 1015.18 1015.65 1016.06 1016.41 1016.72 1016.99 1017.24 1017.47 1017.68 1017.86 1018.01 1018.11 1018.16 1018.14 1018.06 1017.91 1017.70 1017.43 1017.12 1016.78 1016.41 1016.02 1015.63 1015.24 1014.83 1014.42 1013.98 1013.52 1013.03 1012.51 1011.94 1011.35 1010.72 1010.08 1009.42 1008.75 1008.08 1007.42 1006.76 1006.10
1012.67 1013.41 1014.08 1014.67 1015.18 1015.63 1016.02 1016.36 1016.68 1016.97 1017.23 1017.48 1017.71 1017.90 1018.04 1018.13 1018.15 1018.11 1018.00 1017.82 1017.58 1017.29 1016.96 1016.61 1016.26 1015.89 1015.53 1015.17 1014.81 1014.44 1014.06 1013.66 1013.23 1012.77 1012.27 1011.75 1011.21 1010.64 1010.06 1009.46 1008.84 1008.22 1007.57 1006.90
1012.89 1013.56 1014.15 1014.68 1015.14 1015.55 1015.91 1016.24 1016.55 1016.85 1017.13 1017.39 1017.62 1017.81 1017.94 1018.02 1018.03 1017.96 1017.82 1017.61 1017.35 1017.04 1016.71 1016.36 1016.00 1015.65 1015.30 1014.96 1014.62 1014.28 1013.93 1013.56 1013.17 1012.76 1012.33 1011.88 1011.42 1010.95 1010.45 1009.95 1009.42 1008.86 1008.26 1007.60
1013.09 1013.67 1014.19 1014.65 1015.05 1015.41 1015.74 1016.05 1016.35 1016.64 1016.91 1017.17 1017.39 1017.58 1017.71 1017.77 1017.76 1017.67 1017.52 1017.30 1017.03 1016.72 1016.39 1016.04 1015.68 1015.33 1014.99 1014.65 1014.31 1013.97 1013.63 1013.27 1012.90 1012.52 1012.14 1011.75 1011.36 1010.96 1010.56 1010.15 1009.71 1009.23 1008.69 1008.08
1013.23 1013.72 1014.16 1014.54 1014.89 1015.20 1015.50 1015.78 1016.06 1016.34 1016.60 1016.84 1017.06 1017.22 1017.34 1017.39 1017.36 1017.27 1017.12 1016.90 1016.63 1016.33 1016.01 1015.67 1015.33 1014.98 1014.64 1014.30 1013.95 1013.60 1013.25 1012.88 1012.51 1012.14 1011.77 1011.41 1011.06 1010.72 1010.39 1010.04 1009.68 1009.27 1008.79 1008.22
1013.26 1013.67 1014.04 1014.37 1014.67 1014.95 1015.22 1015.48 1015.73 1015.99 1016.23 1016.45 1016.64 1016.79 1016.88 1016.91 1016.88 1016.78 1016.63 1016.42 1016.18 1015.90 1015.60 1015.29 1014.97 1014.64 1014.31 1013.97 1013.62 1013.25 1012.88 1012.49 1012.10 1011.72 1011.34 1010.98 1010.64 1010.32 1010.02 1009.71 1009.38 1009.00 1008.56 1008.02
Thickness
5728 5726 5726 5724 5720 5713 5715 5720 5717 5722 5721 5729 5733 5730 5729 5726 5723 5718 5714 5711 5708 5704 5701 5698 5694 5689 5685 5680 5676 5672 5667 5663 5659 5656 5652 5648 5645 5641 5639 5636 5634 5631 5629 5628
5724 5724 5724 5723 5725 5721 5717 5720 5720 5722 5724 5740 5739 5735 5732 5730 5726 5721 5718 5715 5712 5709 5705 5701 5698 5694 5689 5684 5679 5675 5670 5665 5660 5657 5653 5649 5646 5642 5639 5636 5634 5631 5628 5626
5727 5725 5723 5724 5736 5729 5728 5730 5728 5726 5736 5741 5737 5735 5734 5733 5729 5726 5723 5720 5716 5713 5709 5706 5703 5698 5692 5687 5682 5677 5672 5668 5663 5659 5655 5651 5648 5644 5640 5638 5634 5631 5628 5626
5728 5723 5714 5740 5747 5743 5736 5737 5739 5738 5741 5741 5739 5739 5739 5738 5734 5731 5728 5723 5720 5717 5713 5710 5706 5700 5695 5689 5684 5680 5675 5670 5665 5661 5657 5653 5649 5645 5643 5640 5636 5632 5629 5627
5727 5724 5730 5739 5743 5741 5736 5738 5746 5742 5743 5743 5742 5740 5743 5743 5739 5736 5733 5728 5724 5721 5717 5713 5708 5703 5697 5693 5687 5682 5677 5673 5669 5664 5660 5656 5652 5648 5645 5642 5639 5635 5632 5629
5723 5721 5723 5740 5748 5749 5742 5735 5749 5746 5744 5742 5739 5738 5740 5743 5739 5736 5733 5729 5725 5721 5717 5713 5709 5704 5698 5694 5690 5685 5680 5676 5672 5667 5662 5659 5656 5652 5648 5644 5641 5639 5636 5633
5723 5724 5737 5747 5745 5742 5729 5738 5748 5748 5746 5743 5741 5743 5743 5741 5739 5736 5732 5728 5724 5721 5716 5713 5709 5704 5699 5696 5693 5688 5683 5678 5673 5670 5665 5662 5658 5655 5652 5649 5645 5643 5640 5638
5726 5722 5732 5743 5742 5741 5746 5750 5748 5747 5746 5743 5743 5742 5740 5738 5736 5733 5731 5727 5723 5719 5716 5713 5709 5704 5700 5696 5694 5690 5684 5679 5675 5672 5669 5665 5661 5658 5655 5652 5649 5648 5645 5644
5740 5740 5741 5741 5744 5742 5741 5743 5745 5743 5742 5740 5738 5738 5736 5735 5734 5731 5729 5726 5722 5719 5715 5713 5709 5704 5700 5699 5695 5690 5685 5681 5678 5675 5671 5668 5664 5662 5659 5656 5654 5652 5649 5647
5737 5740 5738 5735 5736 5734 5735 5736 5737 5738 5737 5736 5735 5735 5733 5731 5730 5728 5726 5724 5720 5716 5713 5711 5710 5705 5701 5700 5695 5691 5687 5684 5682 5679 5676 5673 5668 5665 5662 5660 5658 5655 5653 5650
5736 5738 5731 5729 5729 5728 5728 5731 5731 5731 5731 5729 5729 5728 5727 5726 5724 5723 5721 5720 5717 5713 5711 5709 5708 5705 5701 5699 5695 5692 5690 5687 5684 5681 5678 5674 5672 5668 5666 5663 5660 5655 5654 5652
5740 5745 5740 5735 5727 5723 5723 5723 5724 5724 5722 5720 5720 5719 5719 5718 5716 5715 5714 5714 5711 5709 5706 5705 5705 5703 5700 5697 5694 5691 5690 5689 5686 5682 5679 5676 5673 5672 5667 5662 5659 5654 5651 5648
5739 5734 5732 5725 5719 5716 5716 5715 5714 5713 5712 5711 5711 5710 5710 5708 5706 5705 5704 5703 5702 5701 5700 5699 5698 5696 5695 5694 5691 5689 5687 5687 5685 5682 5680 5677 5674 5672 5671 5667 5660 5656 5653 5650
5724 5722 5716 5714 5711 5708 5707 5705 5705 5703 5702 5701 5700 5699 5699 5698 5695 5694 5692 5692 5692 5690 5689 5688 5686 5685 5685 5685 5685 5684 5685 5684 5681 5680 5678 5677 5676 5674 5671 5669 5668 5667 5661 5655
5715 5716 5714 5707 5702 5699 5698 5697 5695 5693 5691 5689 5688 5687 5686 5685 5683 5680 5680 5680 5680 5678 5676 5675 5673 5672 5672 5674 5676 5678 5679 5679 5678 5678 5677 5676 5675 5673 5671 5670 5668 5667 5666 5662
5707 5702 5699 5695 5692 5690 5688 5687 5685 5681 5679 5677 5675 5674 5673 5671 5669 5667 5666 5666 5665 5663 5660 5660 5659 5659 5661 5663 5666 5668 5670 5669 5667 5670 5672 5672 5672 5671 5670 5669 5668 5667 5666 5665
5698 5693 5689 5685 5682 5679 5677 5675 5672 5669 5666 5663 5661 5660 5659 5658 5656 5653 5652 5651 5650 5648 5646 5645 5645 5646 5648 5651 5654 5657 5660 5662 5660 5661 5664 5666 5666 5667 5667 5667 5666 5666 5666 5666
5698 5692 5687 5680 5673 5668 5663 5660 5658 5655 5652 5649 5647 5646 5645 5643 5640 5638 5637 5637 5636 5634 5631 5631 5630 5634 5636 5637 5640 5643 5646 5649 5651 5653 5654 5656 5657 5659 5660 5661 5662 5662 5663 5663
5679 5674 5670 5664 5659 5655 5651 5647 5644 5641 5637 5636 5634 5632 5629 5627 5625 5624 5623 5621 5619 5618 5616 5616 5616 5620 5622 5622 5623 5628 5631 5633 5636 5639 5641 5642 5643 5646 5648 5650 5652 5654 5655 5656
5661 5656 5652 5647 5643 5640 5636 5632 5629 5626 5623 5622 5620 5618 5615 5612 5611 5610 5610 5607 5603 5601 5601 5601 5605 5606 5607 5608 5608 5612 5614 5616 5618 5621 5624 5626 5628 5630 5633 5635 5638 5640 5643 5645
5644 5639 5634 5630 5626 5623 5620 5618 5614 5611 5608 5606 5605 5603 5601 5599 5597 5597 5596 5594 5590 5587 5589 5589 5592 5591 5592 5592 5594 5596 5597 5598 5600 5601 5603 5605 5608 5610 5613 5616 5619 5622 5625 5628
5627 5623 5619 5615 5611 5607 5605 5603 5600 5597 5594 5592 5590 5589 5587 5586 5585 5583 5581 5578 5577 5574 5576 5577 5577 5574 5574 5577 5580 5580 5580 5580 5581 5581 5582 5583 5585 5587 5590 5592 5594 5598 5602 5606
5611 5607 5603 5600 5597 5594 5590 5588 5585 5583 5580 5578 5577 5575 5574 5572 5571 5571 5570 5566 5565 5562 5563 5563 5560 5559 5559 5564 5564 5564 5563 5562 5561 5561 5561 5560 5561 5562 5564 5566 5568 5570 5574 5578
5594 5591 5587 5585 5582 5579 5577 5574 5571 5569 5567 5565 5563 5562 5561 5560 5559 5558 5556 5553 5550 5549 5551 5549 5546 5545 5546 5549 5548 5547 5546 5544 5542 5540 5539 5538 5538 5538 5538 5539 5540 5542 5546 5549
5577 5574 5571 5569 5568 5567 5565 5562 5559 5557 5554 5554 5552 5550 5549 5548 5547 5546 5544 5543 5540 5538 5539 5538 5535 5532 5533 5533 5531 5529 5528 5525 5522 5519 5518 5517 5516 5515 5514 5514 5514 5516 5518 5521
5561 5559 5557 5556 5557 5554 5552 5550 5548 5547 5545 5543 5542 5541 5539 5537 5535 5534 5532 5531 5529 5526 5526 5525 5523 5521 5520 5517 5514 5511 5510 5508 5505 5502 5499 5496 5494 5492 5491 5490 5489 5490 5491 5493
5545 5544 5542 5541 5540 5539 5539 5537 5537 5536 5534 5533 5531 5530 5528 5527 5525 5523 5521 5520 5518 5516 5514 5512 5510 5507 5504 5501 5498 5495 5493 5490 5486 5483 5480 5477 5474 5472 5470 5468 5467 5466 5466 5467